Location: La Silve
(44.2414°N, 5.8889°E)
Time: 12:33:16
(UTC+00:00)

Cosmos 1633 Rocket - Pass Details

Date: 01 December 2020
Orbit: 607 x 624 km, 82.5° (Epoch: 25 January)

Event Time Altitude Azimuth Distance (km) Brightness Sun altitude
Rises 16:24:39 0° 358° (N) 2,895 6.3 -4.9°
Reaches altitude 10° 16:27:00 10° 6° (N) 1,982 5.4 -5.3°
Maximum altitude 16:31:08 40° 76° (ENE) 913 3.5 -6.0°
Drops below altitude 10° 16:35:13 10° 147° (SSE) 1,958 5.5 -6.6°
Sets 16:37:31 0° 154° (SSE) 2,856 6.5 -7.0°
